Location: Unspecified
(40.7945°N, 0.0000°E)
Time: 22:38:01
(UTC+00:00)

Courier 1B - Pass Details

Date: 24 January 2021
Orbit: 962 x 1209 km, 28.3° (Epoch: 26 February)

Event Time Altitude Azimuth Distance (km) Brightness Sun altitude
Rises 00:46:12 0° 242° (WSW) 3,689 - -67.2°
Reaches altitude 10° 00:49:18 10° 230° (SW) 2,715 - -67.0°
Maximum altitude 00:54:35 26° 176° (S) 1,777 - -66.6°
Drops below altitude 10° 00:59:49 10° 121° (ESE) 2,686 - -66.1°
Sets 01:02:52 0° 110° (ESE) 3,642 - -65.8°
